(44002) = 1997 ST1

Discovered at Prescott on 1997-09-23 by P. G. Comba.

Orbit

Orbit type: Main Belt

Note: WebGL enabled browser required.

epoch2023-09-13.0
epoch JD2460200.5
perihelion date2023-06-26.09019
perihelion JD2460121.59019
argument of perihelion (°)305.89718
ascending node (°)20.77021
inclination (°)0.61072
eccentricity0.1435666
perihelion distance (AU)2.5763955
Tisserand w.r.t. Jupiter3.2
ΔV w.r.t. Earth (km/sec)10.1
semimajor axis (AU)3.0082849
mean anomaly (°)14.90584
mean daily motion (°/day)0.18889720
aphelion distance (AU)3.440
period (years)5.22
P-vector [x]0.83547847
P-vector [y]-0.50068082
P-vector [z]-0.22648277
Q-vector [x]0.54951018
Q-vector [y]0.76403693
Q-vector [z]0.33806232
absolute magnitude15.1
phase slope0.15
uncertainty0
referenceMPEC 2024-B03
observations used957
oppositions22
arc length (days)10552
first opposition used1995
last opposition used2024
residual rms (arc-secs)0.71
perturbers coarse indicatorM-v
perturbers precise indicator003Ek
first observation date used1995-02-24.0
last observation date used2024-01-15.0
computer nameMPCLINUX
JD of orbit computation2456966.756276
perihelion JD uncertainty (days)8.7569E-05
argument of perihelion uncertainty (°)3.7498E-04
ascending node uncertainty (°)3.7465E-04
inclination uncertainty (°)4.6807E-06
eccentricity uncertainty 4.3105E-08
perihelion distance uncertainty (AU)1.2578E-07
Minimum Orbit Intersection Distances (in AU)
for orbit epoch: 2460200.5, reference: E2024-B03
Mercury2.16321
Venus1.84946
Earth1.56419
Mars1.19303
Jupiter1.87734
Saturn5.73412
Uranus15.0224
Neptune26.8401

Observations

972 total observations over interval: 1995 02 24.31594 – 2024 01 15.088935
These data are available for download (format description).

Date (UT) J2000 RA J2000 Dec Magn Location Ref
1995 02 24.31594 11 18 33.48 +05 00 52.4 19.9 V 691 – Steward Observatory, Kitt Peak-Spacewatch MPS 81190
1995 02 24.33742 11 18 32.55 +05 00 58.1 19.5 V 691 – Steward Observatory, Kitt Peak-Spacewatch MPS 81190
1995 02 24.35886 11 18 31.55 +05 01 03.9 19.5 V 691 – Steward Observatory, Kitt Peak-Spacewatch MPS 81190
1997 09 04.96568 00 05 03.01 +00 03 30.0 19.9 V 910 – Caussols-ODAS MPS 3804
1997 09 04.99969 00 05 01.62 +00 03 21.6 19.7 V 910 – Caussols-ODAS MPS 3804
1997 09 05.02323 00 05 00.64 +00 03 15.7 19.7 V 910 – Caussols-ODAS MPS 3804
1997 09 22.83206 23 51 49.55 -01 18 13.1 18.7 R 540 – Linz MPS 24
1997 09 22.83883 23 51 49.41 -01 18 13.5   540 – Linz MPS 24
1997 09 22.84537 23 51 49.05 -01 18 15.9   540 – Linz MPS 24
1997 09 22.85648 23 51 48.49 -01 18 20.0   540 – Linz MPS 24
1997 09 23.29732 23 51 28.04 -01 20 22.3   684 – Prescott MPS 24
1997 09 23.30027 23 51 27.94 -01 20 23.3   684 – Prescott MPS 24
1997 09 23.30288 23 51 27.80 -01 20 23.8 17.8 R 684 – Prescott MPS 24
1997 09 23.86076 23 51 02.28 -01 23 01.8 18.7 R 540 – Linz MPS 24
1997 09 23.86819 23 51 01.90 -01 23 02.9   540 – Linz MPS 24
1997 09 24.24866 23 50 44.48 -01 24 49.3 18.0 R 684 – Prescott MPS 24
1997 09 24.25446 23 50 44.22 -01 24 51.0   684 – Prescott MPS 24
1997 09 24.25988 23 50 43.95 -01 24 52.6   684 – Prescott MPS 24
1997 09 25.08003 23 50 06.59 -01 28 42.1 17.9 R 816 – Rand Observatory MPS 24
1997 09 25.08877 23 50 06.18 -01 28 44.0 17.8 R 816 – Rand Observatory MPS 24
1997 09 25.09428 23 50 05.93 -01 28 46.0 18.0 R 816 – Rand Observatory MPS 24
1997 09 25.21848 23 50 00.07 -01 29 20.3 18.0 R 816 – Rand Observatory MPS 24
1997 09 25.23296 23 49 59.40 -01 29 24.3 17.6 R 816 – Rand Observatory MPS 24
1997 09 25.83454 23 49 32.34 -01 32 11.0 18.8 R 540 – Linz MPS 24
1997 09 25.84104 23 49 32.03 -01 32 12.8   540 – Linz MPS 24
1997 09 25.84995 23 49 31.61 -01 32 16.3   540 – Linz MPS 24
1997 09 28.24786 23 47 44.03 -01 43 09.8 18.0 R 684 – Prescott MPS 24
1997 09 28.25205 23 47 43.84 -01 43 11.0   684 – Prescott MPS 24
1997 09 28.25581 23 47 43.67 -01 43 11.9   684 – Prescott MPS 24
1997 09 29.26390 23 46 59.22 -01 47 41.5   684 – Prescott MPS 24
1997 09 29.26969 23 46 58.93 -01 47 43.0 17.9 R 684 – Prescott MPS 24
2000 01 16.50710 10 45 57.72 +08 31 28.5 20.1 V 691 – Steward Observatory, Kitt Peak-Spacewatch MPS 18917
2000 01 16.52110 10 45 57.45 +08 31 30.4 20.1 V 691 – Steward Observatory, Kitt Peak-Spacewatch MPS 18917
2000 01 16.53544 10 45 57.16 +08 31 32.0 20.3 V 691 – Steward Observatory, Kitt Peak-Spacewatch MPS 18917
2000 03 03.19443 10 15 43.07 +11 27 21.2 20.0   704 – Lincoln Laboratory ETS, New Mexico MPS 18917
2000 03 03.20771 10 15 42.44 +11 27 23.8 20.3   704 – Lincoln Laboratory ETS, New Mexico MPS 18917
2000 03 03.22099 10 15 41.91 +11 27 27.9 20.3   704 – Lincoln Laboratory ETS, New Mexico MPS 18917
2000 03 03.23424 10 15 41.14 +11 27 30.8 20.6   704 – Lincoln Laboratory ETS, New Mexico MPS 18917
2000 03 03.24750 10 15 40.58 +11 27 33.4 20.5   704 – Lincoln Laboratory ETS, New Mexico MPS 18917
2000 04 05.12773 09 57 26.39 +13 00 58.0 21.0 V 691 – Steward Observatory, Kitt Peak-Spacewatch MPS 18917
2000 04 05.14910 09 57 26.03 +13 00 59.6 21.3 V 691 – Steward Observatory, Kitt Peak-Spacewatch MPS 18917
2000 04 05.17386 09 57 25.57 +13 01 01.7 21.4 V 691 – Steward Observatory, Kitt Peak-Spacewatch MPS 18917
2001 04 17.36201 14 49 12.48 -16 34 22.2   684 – Prescott MPS 29415
2001 04 17.36604 14 49 12.33 -16 34 21.8 19.7 R 684 – Prescott MPS 29415
2001 04 17.37559 14 49 11.91 -16 34 20.0   684 – Prescott MPS 29415
2001 04 18.34381 14 48 29.86 -16 31 25.3 19.5 R 684 – Prescott MPS 29415
2001 04 18.34899 14 48 29.57 -16 31 24.6   684 – Prescott MPS 29415
2001 05 02.32027 14 37 25.41 -15 43 47.0 19.8   644 – Palomar Mountain/NEAT MPS 29869
2001 05 02.33131 14 37 24.88 -15 43 45.2 19.4   644 – Palomar Mountain/NEAT MPS 29869
2001 05 02.34230 14 37 24.32 -15 43 42.6 19.2   644 – Palomar Mountain/NEAT MPS 29869
2001 05 23.02756 14 21 25.11 -14 29 33.9 19.1 R 807 – Cerro Tololo Observatory, La Serena MPS 31557
2001 05 23.11971 14 21 21.27 -14 29 16.3   807 – Cerro Tololo Observatory, La Serena MPS 31557
2001 06 11.19419 14 12 03.57 -13 43 44.9   684 – Prescott MPS 31557
2001 06 11.20902 14 12 03.33 -13 43 43.6 19.4 R 684 – Prescott MPS 31557
2002 06 27.45268 22 37 05.71 -09 31 46.6 19.8   644 – Palomar Mountain/NEAT MPS 58659
2002 06 27.46307 22 37 05.91 -09 31 45.7 20.1   644 – Palomar Mountain/NEAT MPS 58659
2002 06 27.47355 22 37 06.10 -09 31 44.2 20.1   644 – Palomar Mountain/NEAT MPS 58659
2002 08 08.46629 22 29 44.28 -10 18 46.7 18.0   644 – Palomar Mountain/NEAT MPS 59540
2002 08 08.47721 22 29 43.84 -10 18 49.2 18.0   644 – Palomar Mountain/NEAT MPS 59540
2002 08 08.48713 22 29 43.44 -10 18 51.3 18.0   644 – Palomar Mountain/NEAT MPS 59540
2002 08 10.34434 22 28 31.17 -10 25 47.8 17.9   704 – Lincoln Laboratory ETS, New Mexico MPS 59540
2002 08 10.35625 22 28 30.72 -10 25 50.7 18.2   704 – Lincoln Laboratory ETS, New Mexico MPS 59540
2002 08 10.36813 22 28 30.23 -10 25 52.5 18.4   704 – Lincoln Laboratory ETS, New Mexico MPS 59540
2002 08 10.38001 22 28 29.72 -10 25 54.5 19.2   704 – Lincoln Laboratory ETS, New Mexico MPS 59540
2002 08 14.29916 22 25 47.30 -10 41 17.0 18.2   704 – Lincoln Laboratory ETS, New Mexico MPS 59540
2002 08 14.31410 22 25 46.71 -10 41 20.1 18.5   704 – Lincoln Laboratory ETS, New Mexico MPS 59540
2002 08 14.32905 22 25 45.98 -10 41 24.4 18.5   704 – Lincoln Laboratory ETS, New Mexico MPS 59540
2002 08 14.34440 22 25 45.30 -10 41 28.6 18.5   704 – Lincoln Laboratory ETS, New Mexico MPS 59540
2002 08 14.35904 22 25 44.66 -10 41 31.6 18.7   704 – Lincoln Laboratory ETS, New Mexico MPS 59540
2002 08 17.45898 22 23 28.49 -10 54 12.8 17.9   644 – Palomar Mountain/NEAT MPS 59540
2002 08 17.46913 22 23 28.01 -10 54 15.4 18.0   644 – Palomar Mountain/NEAT MPS 59540
2002 08 17.48031 22 23 27.51 -10 54 18.1 18.1   644 – Palomar Mountain/NEAT MPS 59540
2002 08 28.22274 22 15 11.75 -11 39 17.8 18.0   644 – Palomar Mountain/NEAT MPS 62379
2002 08 28.22945 22 15 11.43 -11 39 19.4 18.2   644 – Palomar Mountain/NEAT MPS 62379
2002 08 28.28599 22 15 08.71 -11 39 33.4 17.9   644 – Palomar Mountain/NEAT MPS 62379
2002 08 28.29659 22 15 08.19 -11 39 36.1 18.1   644 – Palomar Mountain/NEAT MPS 62379
2002 08 28.34813 22 15 05.68 -11 39 48.7 17.7   644 – Palomar Mountain/NEAT MPS 62379
2002 08 28.36214 22 15 05.00 -11 39 52.3 17.7   644 – Palomar Mountain/NEAT MPS 62379
2002 09 05.20925 22 09 10.14 -12 10 42.5 18.7   704 – Lincoln Laboratory ETS, New Mexico MPS 62379
2002 09 05.22352 22 09 09.51 -12 10 45.2 19.1   704 – Lincoln Laboratory ETS, New Mexico MPS 62379
2002 09 05.23766 22 09 08.88 -12 10 48.9 19.3   704 – Lincoln Laboratory ETS, New Mexico MPS 62379
2002 09 05.25180 22 09 08.23 -12 10 51.4 18.7   704 – Lincoln Laboratory ETS, New Mexico MPS 62379
2002 09 05.26592 22 09 07.63 -12 10 55.8 19.2   704 – Lincoln Laboratory ETS, New Mexico MPS 62379
2002 09 10.38733 22 05 35.49 -12 28 42.6 19.2   608 – Haleakala-AMOS MPS 62379
2002 09 10.39794 22 05 35.02 -12 28 44.5 19.0   608 – Haleakala-AMOS MPS 62379
2002 09 10.40872 22 05 34.57 -12 28 46.7 18.9   608 – Haleakala-AMOS MPS 62379
2002 09 15.20089 22 02 38.30 -12 43 08.0 19.0 V 291 – LPL/Spacewatch II MPS 62379
2002 09 15.22446 22 02 37.45 -12 43 11.6 19.0 V 291 – LPL/Spacewatch II MPS 62379
2002 09 15.24820 22 02 36.59 -12 43 15.6 19.1 V 291 – LPL/Spacewatch II MPS 62379
2002 09 15.24830 22 02 36.57 -12 43 16.0 18.4   644 – Palomar Mountain/NEAT MPS 62379
2002 09 15.26974 22 02 35.79 -12 43 19.1 18.8   644 – Palomar Mountain/NEAT MPS 62379
2002 09 15.29077 22 02 35.04 -12 43 22.5 18.7   644 – Palomar Mountain/NEAT MPS 62379
2003 11 21.33894 05 09 48.18 +23 38 44.8 19.6   704 – Lincoln Laboratory ETS, New Mexico MPS 91452
2003 11 21.35175 05 09 47.65 +23 38 43.9 20.0   704 – Lincoln Laboratory ETS, New Mexico MPS 91452
2003 11 21.36474 05 09 46.91 +23 38 44.0 20.0   704 – Lincoln Laboratory ETS, New Mexico MPS 91452
2003 11 21.37751 05 09 46.30 +23 38 43.2 19.7   704 – Lincoln Laboratory ETS, New Mexico MPS 91452
